RH
20 22 21 22 28 28 28 32 31 34 36 35 30 17 25 29 26 29 30 30 30 31 32 35 36 38 41 43 39 41 43 43 41 41 43 43 44 46 47 46 45 45 38 36
22 24 25 28 32 30 33 35 36 37 40 41 30 18 18 20 22 29 31 31 31 33 37 40 42 45 45 41 39 40 46 46 46 47 48 48 48 48 48 49 49 49 49 49
24 26 27 30 34 34 35 37 42 43 40 36 34 20 17 20 24 30 33 34 36 38 37 41 43 43 43 42 40 42 49 50 50 48 48 48 47 46 44 43 46 48 49 50
25 27 29 31 35 36 36 40 44 43 44 40 36 39 23 24 27 31 34 36 38 41 41 45 49 51 50 50 51 53 53 48 44 43 43 44 43 44 45 46 48 48 47 45
26 28 30 32 34 37 41 43 42 44 40 42 39 46 22 24 24 29 36 38 39 42 46 48 51 53 53 53 51 48 48 53 54 49 47 47 47 46 44 42 44 45 46 50
25 27 30 32 37 37 38 40 40 40 43 61 45 39 26 28 27 31 36 40 42 44 50 53 53 53 54 54 55 54 52 51 53 52 47 43 43 44 43 39 36 44 50 55
24 26 30 34 36 38 39 42 44 53 57 52 46 47 29 32 31 34 38 42 44 48 54 55 56 57 58 54 55 56 57 62 63 61 56 54 52 49 41 40 37 42 49 56
28 27 32 36 41 48 47 48 50 63 65 56 52 51 28 25 27 32 40 44 45 50 53 54 58 64 63 60 58 57 61 64 65 64 62 61 55 46 41 44 48 51 52 52
38 34 39 44 44 47 51 56 54 61 63 72 49 41 35 33 34 35 42 44 47 51 54 54 55 62 64 72 68 66 67 69 72 72 70 66 60 55 51 51 55 62 65 67
46 56 48 45 48 51 55 56 58 61 70 71 56 53 41 38 39 38 40 43 47 52 56 59 62 62 66 75 76 72 72 77 73 71 71 63 62 62 62 64 69 68 71 80
54 63 55 53 55 58 63 62 61 63 65 68 74 52 45 48 51 51 49 51 53 54 58 62 65 73 81 85 83 80 83 84 69 70 69 69 70 69 80 82 84 77 71 84
60 66 67 65 62 56 68 65 64 72 79 71 69 65 52 51 55 54 53 60 59 62 65 76 85 88 90 95 94 90 95 81 65 56 57 66 76 80 88 89 90 81 78 81
67 76 77 72 67 62 66 66 71 73 86 92 84 72 56 61 66 66 66 67 70 73 83 89 92 92 94 96 96 96 86 71 70 54 57 66 79 90 90 89 87 86 84 83
79 86 82 84 77 78 84 86 88 89 97 83 89 76 56 70 80 83 86 87 88 91 97 98 96 96 94 94 97 89 63 55 51 50 54 70 79 82 85 89 90 90 89 87
99 98 95 90 87 91 93 93 89 97 84 98 73 80 67 54 75 79 94 95 100 99 99 97 99 99 99 97 74 57 51 46 47 50 56 65 74 87 95 98 96 94 90 87
98 98 98 86 74 87 86 78 71 77 78 99 80 81 61 65 65 65 66 81 89 94 95 98 99 97 78 60 59 53 54 49 47 48 50 60 78 89 96 97 95 93 91 91
99 99 99 95 92 90 92 64 65 67 68 73 71 70 76 74 72 72 76 82 94 98 97 98 94 80 77 77 70 61 53 51 47 46 50 59 74 92 98 99 97 94 91 94
99 100 99 97 98 94 58 64 66 71 70 78 88 77 85 84 78 84 96 98 97 98 96 96 86 77 78 74 65 58 53 48 48 49 54 68 85 93 97 98 96 94 95 95
81 99 98 97 96 82 70 69 67 82 79 76 68 74 90 88 92 100 98 97 97 97 96 90 85 72 73 66 58 53 52 50 50 56 68 81 92 96 95 95 96 94 95 94
84 92 99 99 98 96 75 79 87 92 84 83 88 87 87 98 100 100 97 96 95 95 96 92 78 71 64 59 56 50 47 50 57 67 76 89 94 94 94 94 95 96 95 96
94 99 98 99 99 90 85 99 97 99 95 92 97 98 97 98 97 98 98 96 95 94 92 90 76 65 61 54 51 52 55 62 70 81 89 94 94 94 96 95 95 95 97 95
98 99 98 96 99 96 98 100 100 99 97 98 96 96 96 96 97 97 96 96 95 93 93 78 69 64 55 51 53 60 64 72 81 92 95 96 96 97 98 97 91 71 44 31
98 99 94 98 98 98 96 96 97 96 98 96 96 96 95 97 96 95 95 95 94 94 97 95 78 60 57 60 65 73 77 85 92 97 98 99 98 93 73 48 33 27 22 22
99 99 98 99 98 97 100 95 96 96 98 95 95 95 96 96 96 96 96 96 96 96 95 90 71 61 68 73 80 87 92 96 99 99 100 91 69 48 36 27 24 24 29 32
99 98 96 97 95 97 98 96 96 96 96 96 95 95 96 96 95 95 95 94 93 88 71 58 58 66 79 91 99 100 100 100 98 97 86 62 41 31 27 24 30 35 36 36
99 96 97 97 98 96 96 95 96 95 95 95 96 96 95 95 94 92 85 78 72 70 68 71 80 87 96 100 100 100 100 98 97 94 78 48 34 27 25 34 40 39 42 41
Wind_Speed
7 8 9 10 14 12 15 20 20 23 16 26 25 20 12 19 16 13 9 9 10 9 6 5 5 6 7 9 11 13 14 14 15 15 15 14 15 15 15 14 12 11 12 13
7 7 10 11 12 13 15 19 21 16 26 32 26 17 14 15 13 14 10 9 9 7 3 3 4 5 7 10 14 15 14 15 14 13 13 14 14 15 16 17 18 18 18 16
8 8 10 12 13 14 16 13 24 27 32 28 20 14 7 9 11 13 11 10 8 5 2 1 3 7 10 12 13 15 15 15 15 14 14 14 14 15 15 16 18 19 20 22
7 11 11 12 13 18 18 20 24 27 26 10 16 8 15 14 14 15 14 12 10 7 4 3 5 8 11 13 14 15 15 14 15 16 17 16 15 16 17 18 19 20 21 22
10 10 11 10 15 18 16 27 25 23 13 14 7 6 7 12 15 16 16 14 13 11 9 7 7 10 13 16 17 17 16 16 17 17 16 17 19 21 24 25 25 25 26 26
13 12 10 10 13 18 16 27 22 11 7 3 2 3 16 10 11 15 19 17 16 14 11 10 11 14 18 18 16 17 17 17 18 19 20 21 22 25 26 28 30 31 30 31
16 8 9 10 14 16 19 19 7 4 2 4 3 7 20 16 16 14 20 18 18 16 13 13 13 16 20 20 19 20 20 20 22 23 24 26 28 29 29 30 32 32 32 32
7 7 7 12 15 12 16 11 2 5 3 5 15 10 3 9 14 17 22 20 19 19 16 17 14 14 18 21 23 23 23 24 26 25 27 29 31 32 33 33 33 33 33 34
7 5 21 20 11 16 10 7 9 7 11 5 7 11 20 21 18 18 23 21 23 21 17 18 22 21 25 27 25 25 24 26 29 29 31 32 33 35 37 37 37 36 35 35
10 13 18 12 14 18 12 10 6 5 4 6 9 11 17 15 16 18 22 22 23 23 24 26 25 29 35 38 28 24 25 28 30 32 33 34 36 37 38 39 39 39 39 38
18 12 12 17 21 23 15 12 8 7 8 4 4 13 21 32 30 25 18 19 23 25 25 26 29 37 38 29 26 25 28 29 32 35 36 37 38 41 40 40 41 41 39 37
21 14 18 24 18 19 19 15 15 11 10 13 9 32 37 19 20 21 25 25 25 24 25 35 36 33 31 27 26 28 31 31 34 35 38 39 40 42 41 42 41 40 38 36
15 10 12 9 11 15 19 20 21 28 31 29 13 21 32 42 35 25 28 30 32 29 38 39 35 32 29 26 29 33 32 32 34 36 38 38 40 41 42 41 39 38 38 37
24 25 27 24 33 36 32 32 31 29 18 34 36 51 47 47 42 43 37 33 34 41 41 35 32 29 27 29 30 29 29 31 34 37 38 39 39 40 40 40 39 38 37 36
25 35 35 39 40 41 45 45 45 41 48 31 51 50 42 37 39 41 40 41 41 42 31 31 28 28 29 30 30 31 33 35 36 36 37 38 40 39 40 40 39 37 34 32
32 34 37 45 43 39 43 44 48 46 42 44 45 44 40 38 38 35 28 27 28 32 31 29 27 28 27 30 34 35 35 34 34 36 37 38 39 40 39 37 34 31 29 27
37 35 29 35 33 36 34 31 21 21 23 32 35 40 40 37 37 38 35 30 30 26 24 26 25 27 33 37 36 34 33 35 36 37 38 39 39 37 35 31 28 27 25 23
40 39 34 26 27 8 25 20 24 28 39 31 35 41 38 36 38 37 34 26 20 23 24 24 29 34 34 33 32 33 34 36 38 39 38 37 35 33 29 27 26 24 23 22
19 28 26 13 22 34 42 21 20 21 34 36 25 32 24 29 32 29 22 19 20 22 25 29 32 32 30 31 32 34 36 37 38 37 36 33 30 28 26 25 24 23 22 22
20 19 24 19 9 5 16 25 25 33 34 23 26 30 24 19 21 21 21 21 24 28 29 29 30 30 29 31 34 36 37 37 38 36 33 30 28 26 25 24 24 23 24 23
22 17 24 25 17 18 20 16 29 17 15 34 35 23 21 20 21 20 22 27 28 29 31 31 29 29 30 33 36 37 37 36 35 32 29 27 26 25 24 24 25 25 25 23
21 14 19 15 11 7 14 24 28 24 25 26 25 18 20 22 23 28 31 27 28 33 32 29 29 31 34 36 38 38 37 35 32 29 27 26 26 25 26 25 25 24 24 25
16 18 22 18 14 35 30 37 30 21 22 21 19 20 22 24 26 29 29 34 34 32 30 30 32 35 37 38 38 37 36 33 30 28 27 27 26 26 26 26 26 26 25 25
28 25 22 31 22 29 42 32 18 19 22 20 20 20 24 29 32 33 31 29 29 29 31 34 37 39 38 38 37 35 33 31 29 28 28 28 27 28 28 28 27 25 24 22
36 36 33 31 41 38 26 23 29 24 20 23 27 27 26 24 24 25 27 30 32 34 36 39 41 42 40 37 34 33 32 30 29 29 29 29 29 30 29 27 25 24 22 21
35 33 31 27 24 26 29 27 24 26 27 25 23 23 25 27 28 30 32 34 36 38 39 40 40 40 38 35 32 31 32 31 30 29 30 31 31 30 29 27 24 24 22 22
Wind_Direction
348 1 2 358 357 355 345 338 328 332 322 318 321 307 254 264 264 245 255 252 245 250 263 281 296 311 315 318 314 318 321 324 328 331 333 334 334 337 341 344 341 327 321 312
333 341 353 354 353 348 341 333 331 331 324 321 322 316 273 272 246 235 246 245 243 244 246 288 304 301 305 314 330 327 323 323 325 325 327 329 329 329 332 334 333 333 328 319
330 330 338 345 347 341 336 333 332 323 325 326 328 326 307 264 249 240 244 245 239 227 219 326 329 326 325 322 321 322 322 324 326 326 325 324 324 324 325 326 325 322 319 316
329 325 324 330 337 339 342 337 330 322 322 319 323 291 302 279 260 243 242 243 240 234 248 301 346 339 332 321 323 327 327 327 328 327 323 322 320 319 318 316 313 312 312 310
322 313 312 312 329 336 330 335 325 315 309 307 305 282 295 291 278 250 243 246 243 245 253 273 298 327 336 325 320 325 323 318 316 316 315 316 316 317 317 315 312 312 309 306
318 302 303 303 322 329 328 338 325 311 310 278 248 266 290 292 299 245 242 246 247 249 258 276 295 317 327 325 309 310 314 316 316 315 314 314 313 312 311 311 312 310 309 308
319 301 295 305 315 328 334 342 328 334 338 244 250 273 276 283 280 253 237 244 247 246 258 272 292 315 323 318 307 307 307 309 315 317 315 313 311 307 305 304 305 304 305 305
311 309 310 313 316 315 325 345 352 291 292 288 274 236 279 302 291 257 241 246 254 249 259 268 283 318 326 319 305 302 300 301 309 309 310 308 306 304 302 301 299 299 299 300
301 283 308 306 302 320 311 304 300 260 270 297 254 262 290 285 282 266 249 259 257 248 269 279 280 289 310 322 305 293 292 297 302 302 303 302 300 299 297 296 295 296 296 295
292 299 303 294 303 306 289 287 271 243 299 288 269 274 275 298 296 284 265 268 259 257 276 290 290 289 301 309 297 283 286 290 297 299 298 296 294 294 293 293 294 296 296 293
297 293 285 291 305 300 279 266 245 251 236 225 284 283 302 296 299 291 272 259 257 270 283 292 293 298 300 300 292 277 281 293 298 297 296 293 292 291 292 293 295 296 295 292
290 281 276 295 293 286 277 267 247 246 254 233 262 273 300 298 306 293 277 270 266 272 280 295 299 300 302 300 281 276 285 295 298 299 294 290 289 290 292 293 295 295 294 293
281 271 300 291 281 278 273 280 272 268 260 257 256 269 299 299 299 290 286 281 279 276 290 300 301 297 293 285 281 286 291 295 298 292 290 288 287 288 291 294 295 295 295 294
279 269 265 263 283 291 284 287 284 273 258 267 256 280 308 297 293 295 291 283 275 284 293 294 290 288 284 281 289 302 300 297 290 288 287 286 288 291 292 294 295 296 296 294
264 272 283 285 291 290 287 291 286 273 281 255 289 287 300 314 299 295 284 287 282 284 283 287 285 287 290 298 305 303 298 291 289 290 290 291 292 293 293 295 297 297 295 291
277 269 285 293 298 295 296 293 293 289 281 270 283 287 317 308 303 299 285 276 272 275 283 280 283 290 303 306 305 297 293 294 294 294 294 293 292 292 294 295 296 294 292 290
276 274 275 276 287 295 294 299 296 293 292 303 291 306 308 303 301 295 287 273 272 277 270 274 289 299 304 305 298 295 297 298 299 298 296 295 293 293 294 294 292 291 289 287
275 279 271 273 289 268 292 288 295 289 299 309 305 306 300 298 295 291 284 277 263 266 279 294 300 303 299 297 297 298 300 300 300 298 296 294 292 293 293 292 291 290 290 289
284 269 257 247 255 275 286 287 292 307 311 310 307 318 303 298 290 287 272 269 285 297 303 304 303 300 298 299 301 302 301 301 299 297 294 292 292 292 291 291 291 291 292 290
282 268 260 259 262 247 293 295 291 323 296 292 312 310 300 300 289 277 275 290 310 314 310 305 297 294 298 302 303 303 303 303 299 296 294 292 291 291 291 291 291 292 291 291
287 289 267 273 261 275 275 274 316 301 293 313 305 301 297 292 282 279 288 301 311 311 301 294 294 298 303 305 305 303 302 300 297 294 292 291 290 290 291 290 290 290 289 288
298 281 277 283 247 257 259 298 307 289 297 299 297 306 305 305 298 289 290 296 301 299 293 292 297 301 303 303 303 302 300 298 294 292 290 290 290 291 291 290 288 287 287 285
266 271 278 283 281 288 280 310 293 281 291 292 297 302 301 298 294 292 294 300 300 293 291 297 303 303 302 302 302 299 297 294 292 290 290 290 290 290 290 289 288 287 286 284
285 277 275 283 262 301 301 288 286 298 299 299 301 304 306 302 298 298 298 301 304 307 310 308 303 300 300 300 298 296 294 291 290 290 290 291 291 290 290 288 287 285 283 281
285 281 287 268 286 283 276 291 298 301 300 304 303 301 302 304 307 308 310 310 311 310 307 305 303 301 298 296 295 294 292 291 290 291 291 291 290 290 290 287 284 281 278 276
270 273 278 282 285 289 298 301 303 306 310 312 314 316 316 315 316 314 310 307 304 303 301 300 299 298 297 296 295 292 290 290 290 291 291 291 290 290 287 284 281 277 274 273